Regional Weather Roundup
Issued by NWS

Home | Current Version | Previous Version | Text Only | Print | Product List | Glossary Off
Versions: 1 2 3 4 5 6 7 8 9 10 11 12 13 14 15 16 17 18 19 20 21 22 23 24 25 26 27 28

000
ASUS45 KBOI 300410
RWRID

IDAHO REGIONAL WEATHER ROUNDUP
NATIONAL WEATHER SERVICE BOISE ID
1000 PM MDT FRI APR 29 2016

NOTE: "FAIR" INDICATES FEW OR NO CLOUDS BELOW 12000 FEET
WITH NO SIGNIFICANT WEATHER AND/OR OBSTRUCTIONS TO VISIBILITY

IDZ012-014-300500-
SOUTHWEST IDAHO


CITY           SKY/WX    TMP DP  RH WIND       PRES   REMARKS
BOISE          PTCLDY    52  38  58 NW14      29.92R
CALDWELL       PTCLDY    49  38  65 W14       29.95R
MOUNTAIN HOME  MOCLDY    51  38  60 NW16      29.89R
$$

IDZ016-017-300500-
SOUTHCENTRAL IDAHO


CITY           SKY/WX    TMP DP  RH WIND       PRES   REMARKS
BURLEY         CLOUDY    46  41  82 S5        29.85R
JEROME         MOCLDY    49  38  65 SW12      29.87R
TWIN FALLS     CLOUDY    48  36  63 SW15      29.88R
$$

IDZ019>023-300500-
SOUTHEAST IDAHO


CITY           SKY/WX    TMP DP  RH WIND       PRES   REMARKS
IDAHO FALLS    CLEAR     44  36  73 CALM      29.89R
POCATELLO      CLOUDY    45  41  86 CALM      29.87R
REXBURG        MOCLDY    45  36  70 CALM      29.89R
$$

IDZ006-010-011-018-031-032-300500-
CENTRAL IDAHO MOUNTAINS


CITY           SKY/WX    TMP DP  RH WIND       PRES   REMARKS
MCCALL         CLEAR     40  32  73 N12       29.96R WCI  33
HAILEY         CLOUDY    41  39  93 NW6       29.90S
STANLEY          N/A     40  31  70 NW3       29.94R
SALMON         CLOUDY    45  34  65 NE3       29.94R
CHALLIS        MOCLDY    42  33  70 N5        29.92R
$$

IDZ002-004-006-007-026-300500-
NORTHERN IDAHO


CITY           SKY/WX    TMP DP  RH WIND       PRES   REMARKS
LEWISTON       LGT RAIN  50  47  89 CALM      30.04R
LOWELL           N/A     48  46  93 CALM      30.06R
COEUR D`ALENE  CLOUDY    48  45  87 CALM      30.00R
MULLAN PASS    FOG       32  31  96 CALM      30.00R VSB 1/2
$$




USA.gov is the U.S. government's official web portal to all federal, state and local government web resources and services.